STARLINK-11080, 60727

Orbit data source: Space-Track

STARLINK-11080, 60727 is a payload satellite owned by SpaceX/Seattle (US) in LEO that was launched on Wed, 28 Aug 2024 UTC via an FALCON 9 launch vehicle from the Air Force Eastern Test Range (AFETR). Payload-class satellites include a variety of spacecraft equipped with specific instruments for various scientific and technological missions. These include communications satellites like Starlink; space stations such as the ISS; scientific satellites like the Hubble; Earth observation satellites from companies like Planet Labs, Umbra, and HawkEye 360; GPS; miniature CubeSats for education and research; and military/defense satellites.

Loading next visibility...
Identifier
60727, 2024-152H
Orbit
LEO
Country
Flag of USUS
Related business
Manufacturer
SpaceX/Seattle
Mission
Operational Commercial Communications
Bus & Motor
STARLINK V2M, Unknown motor
Mass
730 kg wet, ~700 kg dry
Launch date (UTC)
2024-08-28 (1 year ago)
Launch vehicle
FALCON 9
Launch site
Air Force Eastern Test Range (AFETR)
Object type
Payload
Rocket body
Debris
Shape & HBR
Box + 2 Pan, 14.5 m
Radar Cross Section
36.964 m², Large (>1 m²)

Expand to show TLE details & history
Last TLE update: 23 hours ago

TLE from 23 hours ago
0 STARLINK-11080
1 60727U 24152H   25242.53836674  .00000013  00000-0  49634-5 0  9998
2 60727  53.1583 338.4849 0001148  90.5054 269.6095 15.69702859 58940
Epoch: 2025-08-30T12:55Z
TLE epoch observation values (Epoch: 2025-08-30T12:55:14.886Z)
Latitude
-0.00005°
Longitude
165.70161°
Altitude
360.667 km
Speed
7.694 km/s
True Right ascension
22h 33m 56s
True Declination
0° 00' 00"
Sunlit
Object was in full shadow at epoch
Visualization orbit readout
Latitude
Unknown
Longitude
Unknown
Altitude
Unknown
Speed
Unknown
Apparent Right ascension
Unknown
Apparent Declination
Unknown
Sunlit
N/A
Visualization observer readout
Local Sidereal Time
03:04:28
Azimuth
Unknown
Elevation
Unknown
Doppler factor
Unknown
Orbital elements
Apogee altitude
360.782 km
Perigee altitude
359.235 km
Semi-major axis
6,738.145 km
Eccentricity
0.00011
Inclination
53.1583°
RAAN
338.4849°
Arg. of periapsis
90.5054°
True anomaly
269.59635°
Mean anomaly
269.6095°
Eccentric anomaly
269.60292°
Mean motion
3.92403 °/min
Orbital period
91.74 mins
BSTAR
0.0000049634
Loading maneuver chart data...
Computing Atmospheric mass density...
Loading historical data...
Loading historical data...
Loading historical data...
Loading historical data...
Loading historical data...
Loading historical data...
Loading historical data...

Documentation

Showing up to 5 results
|